Regional Weather Roundup
Issued by NWS

Home | Current Version | Previous Version | Graphics & Text | Print | Product List | Glossary On
Versions: 1 2 3 4 5 6 7 8 9 10 11 12 13 14 15 16 17 18 19 20 21 22 23 24 25 26 27 28 29 30 31 32 33 34 35 36 37 38 39 40 41 42 43 44 45 46 47 48 49 50
834
ASUS43 KBIS 251302
RWRND

NORTH DAKOTA REGIONAL WEATHER ROUNDUP
NATIONAL WEATHER SERVICE BISMARCK ND
800 AM CDT SUN SEP 25 2016

NOTE: "FAIR" INDICATES FEW OR NO CLOUDS BELOW 12,000 FEET WITH NO
SIGNIFICANT WEATHER AND/OR OBSTRUCTIONS TO VISIBILITY.


NDZ001>003-009>011-017-251400-
NORTHWEST NORTH DAKOTA

CITY           SKY/WX    TMP DP  RH WIND       PRES   REMARKS
WILLISTON      CLEAR     45  38  76 NW21G28   30.13R
MINOT          MOCLDY    50  47  89 W24G35    29.93R
MINOT AFB      CLOUDY    49  46  88 NW26G36   29.92R
$$

NDZ018>021-031>035-040>046-251400-
SOUTHWEST NORTH DAKOTA

CITY           SKY/WX    TMP DP  RH WIND       PRES   REMARKS
BISMARCK       CLOUDY    53  48  83 NW23G36   29.97R
DICKINSON      CLEAR     42  38  85 W20G28    30.10R
GARRISON         N/A     48  46  93 NW28G38   29.96R
HETTINGER ARPT CLEAR     44  38  79 W18       30.16R
$$

NDZ004>008-012>016-024-026-027-054-251400-
NORTHEAST NORTH DAKOTA

CITY           SKY/WX    TMP DP  RH WIND       PRES   REMARKS
GRAND FORKS    MOCLDY    52  48  86 S12       29.68F
GRND FRKS AFB  CLOUDY    53  49  86 S12       29.67F
DEVILS LAKE    CLOUDY    52  50  93 NW26G35   29.72R
$$

NDZ022-023-025-028>030-036>039-047>053-251400-
SOUTHEAST NORTH DAKOTA

CITY           SKY/WX    TMP DP  RH WIND       PRES   REMARKS
FARGO          CLOUDY    54  48  80 S13       29.76S
JAMESTOWN      CLOUDY    53  51  93 W17G32    29.80R
$$





USA.gov is the U.S. government's official web portal to all federal, state and local government web resources and services.